START_TIME,STEP,MOV.,M34,t_acc.,L5,t_acc.,L18,t_acc.,L14,t_acc.
1981-08-27 15:00:25.480 ,3,0,0.,12.0,0.,12.0,0.,12.0,0.,12.0
1981-08-27 15:00:37.480 ,3,0,0.,12.0,0.,12.0,0.,12.0,0.,12.0
1981-08-27 15:00:49.480 ,4,1,0.,12.0,0.,12.0,0.,12.0,0.,12.0
1981-08-27 15:01:01.480 ,4,1,0.,12.0,0.,12.0,0.,12.0,0.,12.0
1981-08-27 15:01:13.480 ,4,0,0.,12.0,0.,12.0,0.,12.0,0.,12.0
1981-08-27 15:01:25.480 ,4,0,0.,12.0,0.,12.0,0.,12.0,0.,12.0
1981-08-27 15:01:37.480 ,5,1,0.,12.0,0.,12.0,0.,12.0,0.,12.0
1981-08-27 15:01:49.480 ,5,1,0.,12.0,0.,12.0,0.,12.0,0.,12.0
1981-08-27 15:02:01.480 ,5,0,0.,12.0,0.,12.0,0.,12.0,0.,12.0
1981-08-27 15:02:13.480 ,5,0,0.,12.0,0.,12.0,0.,12.0,0.,12.0
1981-08-27 15:02:25.480 ,6,1,0.,12.0,0.,12.0,0.,12.0,0.,12.0
1981-08-27 15:02:37.480 ,6,1,0.,12.0,0.,12.0,0.,12.0,0.,12.0
1981-08-27 15:02:49.480 ,6,0,0.,12.0,0.,12.0,0.,12.0,0.,12.0
1981-08-27 15:03:01.480 ,6,0,0.,12.0,0.,12.0,0.,12.0,0.,12.0
1981-08-27 15:03:13.480 ,7,1,0.,12.0,0.,12.0,0.,12.0,0.,12.0
1981-08-27 15:03:25.480 ,7,1,0.,12.0,0.,12.0,0.,12.0,0.,12.0
1981-08-27 15:03:37.480 ,7,0,0.,12.0,0.,12.0,0.,12.0,0.,12.0
1981-08-27 15:03:49.480 ,7,0,0.,12.0,0.,12.0,0.,12.0,0.,12.0
1981-08-27 15:04:01.480 ,7,1,0.,12.0,0.,12.0,0.,12.0,0.,12.0
1981-08-27 15:04:13.480 ,7,1,0.,12.0,0.,12.0,0.,12.0,0.,12.0
1981-08-27 15:04:25.480 ,6,1,0.,12.0,0.,12.0,0.,12.0,0.,12.0
1981-08-27 15:04:37.480 ,6,1,0.,12.0,0.,12.0,0.,12.0,0.,12.0
1981-08-27 15:04:49.480 ,5,1,0.,12.0,0.,12.0,0.,12.0,0.,12.0
1981-08-27 15:05:01.480 ,5,1,0.,12.0,0.,12.0,0.,12.0,0.,12.0
1981-08-27 15:05:13.480 ,4,1,0.,12.0,0.,12.0,0.,12.0,0.,12.0
1981-08-27 15:05:25.480 ,4,1,0.,12.0,0.,12.0,0.,12.0,0.,12.0
1981-08-27 15:06:25.480 ,0,0,0.,12.0,0.,12.0,0.,12.0,0.,12.0
1981-08-27 15:06:37.480 ,0,0,0.,12.0,0.,12.0,0.,12.0,0.,12.0
1981-08-27 15:06:49.480 ,0,1,0.,12.0,0.,12.0,0.,12.0,0.,12.0
1981-08-27 15:07:01.480 ,0,1,0.,12.0,0.,12.0,0.,12.0,0.,12.0
1981-08-27 15:07:13.480 ,0,1,0.,12.0,0.,12.0,0.,12.0,0.,12.0
1981-08-27 15:07:25.480 ,0,1,0.,12.0,0.,12.0,0.,12.0,0.,12.0
1981-08-27 15:07:37.480 ,1,1,0.,12.0,0.,12.0,0.,12.0,0.,12.0
1981-08-27 15:07:49.480 ,1,1,0.,12.0,0.,12.0,0.,12.0,0.,12.0
1981-08-27 15:08:01.480 ,2,1,0.,12.0,0.,12.0,0.,12.0,0.,12.0
1981-08-27 15:08:13.480 ,2,1,0.,12.0,0.,12.0,0.,12.0,0.,12.0
1981-08-27 15:08:25.480 ,3,1,0.,12.0,0.,12.0,0.,12.0,0.,12.0
1981-08-27 15:08:37.480 ,3,1,0.,12.0,0.,12.0,0.,12.0,0.,12.0
1981-08-27 15:08:49.480 ,4,1,0.,12.0,0.,12.0,0.,12.0,0.,12.0
1981-08-27 15:09:01.480 ,4,1,0.,12.0,0.,12.0,0.,12.0,0.,12.0
1981-08-27 15:09:13.480 ,5,1,0.,12.0,0.,12.0,0.,12.0,0.,12.0
1981-08-27 15:09:25.480 ,5,1,0.,12.0,0.,12.0,0.,12.0,0.,12.0
1981-08-27 15:09:37.480 ,6,1,0.,12.0,0.,12.0,0.,12.0,0.,12.0
1981-08-27 15:09:49.480 ,6,1,0.,12.0,0.,12.0,0.,12.0,0.,12.0
1981-08-27 15:10:01.480 ,7,1,0.,12.0,0.,12.0,0.,12.0,0.,12.0
1981-08-27 15:10:13.480 ,7,1,0.,12.0,0.,12.0,0.,12.0,0.,12.0
1981-08-27 15:10:25.480 ,7,1,0.,12.0,0.,12.0,0.,12.0,0.,12.0
1981-08-27 15:10:37.480 ,7,1,0.,12.0,0.,12.0,0.,12.0,0.,12.0
1981-08-27 15:10:49.480 ,7,0,0.,12.0,0.,12.0,0.,12.0,0.,12.0
1981-08-27 15:11:01.480 ,7,0,0.,12.0,0.,12.0,0.,12.0,0.,12.0
1981-08-27 15:11:13.480 ,6,1,0.,12.0,0.,12.0,0.,12.0,0.,12.0
1981-08-27 15:11:25.480 ,6,1,0.,12.0,0.,12.0,0.,12.0,0.,12.0
1981-08-27 15:11:37.480 ,6,0,0.,12.0,0.,12.0,0.,12.0,0.,12.0
1981-08-27 15:11:49.480 ,6,0,0.,12.0,0.,12.0,0.,12.0,0.,12.0
1981-08-27 15:12:01.480 ,5,1,0.,12.0,0.,12.0,0.,12.0,0.,12.0
1981-08-27 15:12:13.480 ,5,1,0.,12.0,0.,12.0,0.,12.0,0.,12.0
1981-08-27 15:12:25.480 ,5,0,0.,12.0,0.,12.0,0.,12.0,0.,12.0
1981-08-27 15:12:37.480 ,5,0,0.,12.0,0.,12.0,0.,12.0,0.,12.0
1981-08-27 15:12:49.480 ,4,1,0.,12.0,0.,12.0,0.,12.0,0.,12.0
1981-08-27 15:13:01.480 ,4,1,0.,12.0,0.,12.0,0.,12.0,0.,12.0
1981-08-27 15:13:13.480 ,4,0,0.,12.0,0.,12.0,0.,12.0,0.,12.0
1981-08-27 15:13:25.480 ,4,0,0.,12.0,0.,12.0,0.,12.0,0.,12.0
1981-08-27 15:13:37.480 ,3,1,0.,12.0,0.,12.0,0.,12.0,0.,12.0
1981-08-27 15:13:49.480 ,3,1,0.,12.0,0.,12.0,0.,12.0,0.,12.0
1981-08-27 15:14:01.480 ,3,0,0.,12.0,0.,12.0,0.,12.0,0.,12.0
1981-08-27 15:14:13.480 ,3,0,0.,12.0,0.,12.0,0.,12.0,0.,12.0
1981-08-27 15:14:25.480 ,2,1,0.,12.0,0.,12.0,0.,12.0,0.,12.0
1981-08-27 15:14:37.480 ,2,1,0.,12.0,0.,12.0,0.,12.0,0.,12.0
1981-08-27 15:14:49.480 ,2,0,0.,12.0,0.,12.0,0.,12.0,0.,12.0
1981-08-27 15:15:01.480 ,2,0,0.,12.0,0.,12.0,0.,12.0,0.,12.0
1981-08-27 15:15:13.480 ,1,1,0.,12.0,0.,12.0,0.,12.0,0.,12.0
1981-08-27 15:15:25.480 ,1,1,0.,12.0,0.,12.0,0.,12.0,0.,12.0
1981-08-27 15:15:37.480 ,1,0,0.,12.0,0.,12.0,0.,12.0,0.,12.0
1981-08-27 15:15:49.480 ,1,0,0.,12.0,0.,12.0,0.,12.0,0.,12.0
1981-08-27 15:16:01.480 ,0,1,0.,12.0,0.,12.0,0.,12.0,0.,12.0
1981-08-27 15:16:13.480 ,0,1,0.,12.0,0.,12.0,0.,12.0,0.,12.0
1981-08-27 15:16:25.480 ,0,0,0.,12.0,0.,12.0,0.,12.0,0.,12.0
1981-08-27 15:16:37.480 ,0,0,0.,12.0,0.,12.0,0.,12.0,0.,12.0
1981-08-27 15:16:49.480 ,0,1,0.,12.0,0.,12.0,0.,12.0,0.,12.0
1981-08-27 15:17:01.480 ,0,1,0.,12.0,0.,12.0,0.,12.0,0.,12.0
1981-08-27 15:17:13.480 ,0,0,0.,12.0,0.,12.0,0.,12.0,0.,12.0
1981-08-27 15:17:25.480 ,0,0,0.,12.0,0.,12.0,0.,12.0,0.,12.0
1981-08-27 15:17:37.480 ,1,1,0.,12.0,0.,12.0,0.,12.0,0.,12.0
1981-08-27 15:17:49.480 ,1,1,0.,12.0,0.,12.0,0.,12.0,0.,12.0
1981-08-27 15:18:01.480 ,1,0,0.,12.0,0.,12.0,0.,12.0,0.,12.0
1981-08-27 15:18:13.480 ,1,0,0.,12.0,0.,12.0,0.,12.0,0.,12.0
1981-08-27 15:18:25.480 ,2,1,0.,12.0,0.,12.0,0.,12.0,0.,12.0
1981-08-27 15:18:37.480 ,2,1,0.,12.0,0.,12.0,0.,12.0,0.,12.0
1981-08-27 15:18:49.480 ,2,0,0.,12.0,0.,12.0,0.,12.0,0.,12.0
1981-08-27 15:19:01.480 ,2,0,0.,12.0,0.,12.0,0.,12.0,0.,12.0
1981-08-27 15:19:13.480 ,3,1,0.,12.0,0.,12.0,0.,12.0,0.,12.0
1981-08-27 15:19:25.480 ,3,1,0.,12.0,0.,12.0,0.,12.0,0.,12.0
1981-08-27 15:19:37.480 ,3,0,0.,12.0,0.,12.0,0.,12.0,0.,12.0
1981-08-27 15:19:49.480 ,3,0,0.,12.0,0.,12.0,0.,12.0,0.,12.0
1981-08-27 15:20:01.480 ,4,1,0.,12.0,0.,12.0,0.,12.0,0.,12.0
1981-08-27 15:20:13.480 ,4,1,0.,12.0,0.,12.0,0.,12.0,0.,12.0
1981-08-27 15:20:25.480 ,4,0,0.,12.0,0.,12.0,0.,12.0,0.,12.0
1981-08-27 15:20:37.480 ,4,0,0.,12.0,0.,12.0,0.,12.0,0.,12.0
1981-08-27 15:20:49.480 ,5,1,0.,12.0,0.,12.0,0.,12.0,0.,12.0
1981-08-27 15:21:01.480 ,5,1,0.,12.0,0.,12.0,0.,12.0,0.,12.0
1981-08-27 15:21:13.480 ,5,0,0.,12.0,0.,12.0,0.,12.0,0.,12.0
1981-08-27 15:21:25.480 ,5,0,0.,12.0,0.,12.0,0.,12.0,0.,12.0
1981-08-27 15:21:37.480 ,6,1,0.,12.0,0.,12.0,0.,12.0,0.,12.0
1981-08-27 15:21:49.480 ,6,1,0.,12.0,0.,12.0,0.,12.0,0.,12.0
1981-08-27 15:22:01.480 ,6,0,0.,12.0,0.,12.0,0.,12.0,0.,12.0
1981-08-27 15:22:13.480 ,6,0,0.,12.0,0.,12.0,0.,12.0,0.,12.0
1981-08-27 15:22:25.480 ,7,1,0.,12.0,0.,12.0,0.,12.0,0.,12.0
1981-08-27 15:22:37.480 ,7,1,0.,12.0,0.,12.0,0.,12.0,0.,12.0
1981-08-27 15:22:49.480 ,7,0,0.,12.0,0.,12.0,0.,12.0,0.,12.0
1981-08-27 15:23:01.480 ,7,0,0.,12.0,0.,12.0,0.,12.0,0.,12.0
1981-08-27 15:23:13.480 ,7,1,0.,12.0,0.,12.0,0.,12.0,0.,12.0
1981-08-27 15:23:25.480 ,7,1,0.,12.0,0.,12.0,0.,12.0,0.,12.0
1981-08-27 15:23:37.480 ,6,1,0.,12.0,0.,12.0,0.,12.0,0.,12.0
1981-08-27 15:23:49.480 ,6,1,0.,12.0,0.,12.0,0.,12.0,0.,12.0
1981-08-27 15:24:01.480 ,5,1,0.,12.0,0.,12.0,0.,12.0,0.,12.0
1981-08-27 15:24:13.480 ,5,1,0.,12.0,0.,12.0,0.,12.0,0.,12.0
1981-08-27 15:24:25.480 ,4,1,0.,12.0,0.,12.0,0.,12.0,0.,12.0
1981-08-27 15:24:37.480 ,4,1,0.,12.0,0.,12.0,0.,12.0,0.,12.0
1981-08-27 15:24:49.480 ,3,1,0.,12.0,0.,12.0,0.,12.0,0.,12.0
1981-08-27 15:25:01.480 ,3,1,0.,12.0,0.,12.0,0.,12.0,0.,12.0
1981-08-27 15:25:13.480 ,2,1,0.,12.0,0.,12.0,0.,12.0,0.,12.0
1981-08-27 15:25:25.480 ,2,1,0.,12.0,0.,12.0,0.,12.0,0.,12.0
1981-08-27 15:25:37.480 ,1,1,0.,12.0,0.,12.0,0.,12.0,0.,12.0
1981-08-27 15:25:49.480 ,1,1,0.,12.0,0.,12.0,0.,12.0,0.,12.0
1981-08-27 15:26:01.480 ,0,1,0.,12.0,0.,12.0,0.,12.0,0.,12.0
1981-08-27 15:26:13.480 ,0,1,0.,12.0,0.,12.0,0.,12.0,0.,12.0
1981-08-27 15:26:25.480 ,0,1,0.,12.0,0.,12.0,0.,12.0,0.,12.0
1981-08-27 15:26:37.480 ,0,1,0.,12.0,0.,12.0,0.,12.0,0.,12.0
1981-08-27 15:26:49.480 ,1,1,0.,12.0,0.,12.0,0.,12.0,0.,12.0
1981-08-27 15:27:01.480 ,1,1,0.,12.0,0.,12.0,0.,12.0,0.,12.0
1981-08-27 15:27:13.480 ,2,1,0.,12.0,0.,12.0,0.,12.0,0.,12.0
1981-08-27 15:27:25.480 ,2,1,0.,12.0,0.,12.0,0.,12.0,0.,12.0
1981-08-27 15:27:37.480 ,3,1,0.,12.0,0.,12.0,0.,12.0,0.,12.0
1981-08-27 15:27:49.480 ,3,1,0.,12.0,0.,12.0,0.,12.0,0.,12.0
1981-08-27 15:28:01.480 ,4,1,0.,12.0,0.,12.0,0.,12.0,0.,12.0
1981-08-27 15:28:13.480 ,4,1,0.,12.0,0.,12.0,0.,12.0,0.,12.0
1981-08-27 15:28:25.480 ,5,1,0.,12.0,0.,12.0,0.,12.0,0.,12.0
1981-08-27 15:28:37.480 ,5,1,0.,12.0,0.,12.0,0.,12.0,0.,12.0
1981-08-27 15:28:49.480 ,6,1,0.,12.0,0.,12.0,0.,12.0,0.,12.0
1981-08-27 15:29:01.480 ,6,1,0.,12.0,0.,12.0,0.,12.0,0.,12.0
1981-08-27 15:29:13.480 ,7,1,0.,12.0,0.,12.0,0.,12.0,0.,12.0
1981-08-27 15:29:25.480 ,7,1,0.,12.0,0.,12.0,0.,12.0,0.,12.0
1981-08-27 15:29:37.480 ,7,1,0.,12.0,0.,12.0,0.,12.0,0.,12.0
1981-08-27 15:29:49.480 ,7,1,0.,12.0,0.,12.0,0.,12.0,0.,12.0
1981-08-27 15:30:01.480 ,7,0,0.,12.0,0.,12.0,0.,12.0,0.,12.0
1981-08-27 15:30:13.480 ,7,0,0.,12.0,0.,12.0,0.,12.0,0.,12.0
1981-08-27 15:30:25.480 ,6,1,0.,12.0,0.,12.0,0.,12.0,0.,12.0
1981-08-27 15:30:37.480 ,6,1,0.,12.0,0.,12.0,0.,12.0,0.,12.0
1981-08-27 15:30:49.480 ,6,0,0.,12.0,0.,12.0,0.,12.0,0.,12.0
1981-08-27 15:31:01.480 ,6,0,0.,12.0,0.,12.0,0.,12.0,0.,12.0
1981-08-27 15:31:13.480 ,5,1,0.,12.0,0.,12.0,0.,12.0,0.,12.0
1981-08-27 15:31:25.480 ,5,1,0.,12.0,0.,12.0,0.,12.0,0.,12.0
1981-08-27 15:31:37.480 ,5,0,0.,12.0,0.,12.0,0.,12.0,0.,12.0
1981-08-27 15:31:49.480 ,5,0,0.,12.0,0.,12.0,0.,12.0,0.,12.0
1981-08-27 15:32:01.480 ,4,1,0.,12.0,0.,12.0,0.,12.0,0.,12.0
1981-08-27 15:32:13.480 ,4,1,0.,12.0,0.,12.0,0.,12.0,0.,12.0
1981-08-27 15:32:25.480 ,4,0,0.,12.0,0.,12.0,0.,12.0,0.,12.0
1981-08-27 15:32:37.480 ,4,0,0.,12.0,0.,12.0,0.,12.0,0.,12.0
1981-08-27 15:32:49.480 ,3,1,0.,12.0,0.,12.0,0.,12.0,0.,12.0
1981-08-27 15:33:01.480 ,3,1,0.,12.0,0.,12.0,0.,12.0,0.,12.0
1981-08-27 15:33:13.480 ,3,0,0.,12.0,0.,12.0,0.,12.0,0.,12.0
1981-08-27 15:33:25.480 ,3,0,0.,12.0,0.,12.0,0.,12.0,0.,12.0
1981-08-27 15:33:37.480 ,2,1,0.,12.0,0.,12.0,0.,12.0,0.,12.0
1981-08-27 15:33:49.480 ,2,1,0.,12.0,0.,12.0,0.,12.0,0.,12.0
1981-08-27 15:34:01.480 ,2,0,0.,12.0,0.,12.0,0.,12.0,0.,12.0
1981-08-27 15:34:13.480 ,2,0,0.,12.0,0.,12.0,0.,12.0,0.,12.0
1981-08-27 15:34:25.480 ,1,1,0.,12.0,0.,12.0,0.,12.0,0.,12.0
1981-08-27 15:34:37.480 ,1,1,0.,12.0,0.,12.0,0.,12.0,0.,12.0
1981-08-27 15:34:49.480 ,1,0,0.,12.0,0.,12.0,0.,12.0,0.,12.0
1981-08-27 15:35:01.480 ,1,0,0.,12.0,0.,12.0,0.,12.0,0.,12.0
1981-08-27 15:35:13.480 ,0,1,0.,12.0,0.,12.0,0.,12.0,0.,12.0
1981-08-27 15:35:25.480 ,0,1,0.,12.0,0.,12.0,0.,12.0,0.,12.0
1981-08-27 15:35:37.480 ,0,0,0.,12.0,0.,12.0,0.,12.0,0.,12.0
1981-08-27 15:35:49.480 ,0,0,0.,12.0,0.,12.0,0.,12.0,0.,12.0
1981-08-27 15:36:01.480 ,0,1,0.,12.0,0.,12.0,0.,12.0,0.,12.0
1981-08-27 15:36:13.480 ,0,1,0.,12.0,0.,12.0,0.,12.0,0.,12.0
1981-08-27 15:36:25.480 ,0,0,0.,12.0,0.,12.0,0.,12.0,0.,12.0
1981-08-27 15:36:37.480 ,0,0,0.,12.0,0.,12.0,0.,12.0,0.,12.0
1981-08-27 15:36:49.480 ,1,1,0.,12.0,0.,12.0,0.,12.0,0.,12.0
1981-08-27 15:37:01.480 ,1,1,0.,12.0,0.,12.0,0.,12.0,0.,12.0
1981-08-27 15:37:13.480 ,1,0,0.,12.0,0.,12.0,0.,12.0,0.,12.0
1981-08-27 15:37:25.480 ,1,0,0.,12.0,0.,12.0,0.,12.0,0.,12.0
1981-08-27 15:37:37.480 ,2,1,0.,12.0,0.,12.0,0.,12.0,0.,12.0
1981-08-27 15:37:49.480 ,2,1,0.,12.0,0.,12.0,0.,12.0,0.,12.0
1981-08-27 15:38:01.480 ,2,0,0.,12.0,0.,12.0,0.,12.0,0.,12.0
1981-08-27 15:38:13.480 ,2,0,0.,12.0,0.,12.0,0.,12.0,0.,12.0
1981-08-27 15:38:25.480 ,3,1,0.,12.0,0.,12.0,0.,12.0,0.,12.0
1981-08-27 15:38:37.480 ,3,1,0.,12.0,0.,12.0,0.,12.0,0.,12.0
1981-08-27 15:38:49.480 ,3,0,0.,12.0,0.,12.0,0.,12.0,0.,12.0
1981-08-27 15:39:01.480 ,3,0,0.,12.0,0.,12.0,0.,12.0,0.,12.0
1981-08-27 15:39:13.480 ,4,1,0.,12.0,0.,12.0,0.,12.0,0.,12.0
1981-08-27 15:39:25.480 ,4,1,0.,12.0,0.,12.0,0.,12.0,0.,12.0
1981-08-27 15:39:37.480 ,4,0,0.,12.0,0.,12.0,0.,12.0,0.,12.0
1981-08-27 15:39:49.480 ,4,0,0.,12.0,0.,12.0,0.,12.0,0.,12.0
1981-08-27 15:40:01.480 ,5,1,0.,12.0,0.,12.0,0.,12.0,0.,12.0
1981-08-27 15:40:13.480 ,5,1,0.,12.0,0.,12.0,0.,12.0,0.,12.0
1981-08-27 15:40:25.480 ,5,0,0.,12.0,0.,12.0,0.,12.0,0.,12.0
1981-08-27 15:40:37.480 ,5,0,0.,12.0,0.,12.0,0.,12.0,0.,12.0
1981-08-27 15:40:49.480 ,6,1,0.,12.0,0.,12.0,0.,12.0,0.,12.0
1981-08-27 15:41:01.480 ,6,1,0.,12.0,0.,12.0,0.,12.0,0.,12.0
1981-08-27 15:41:13.480 ,6,0,0.,12.0,0.,12.0,0.,12.0,0.,12.0
1981-08-27 15:41:25.480 ,6,0,0.,12.0,0.,12.0,0.,12.0,0.,12.0
1981-08-27 15:41:37.480 ,7,1,0.,12.0,0.,12.0,0.,12.0,0.,12.0
1981-08-27 15:41:49.480 ,7,1,0.,12.0,0.,12.0,0.,12.0,0.,12.0
1981-08-27 15:42:01.480 ,7,0,0.,12.0,0.,12.0,0.,12.0,0.,12.0
1981-08-27 15:42:13.480 ,7,0,0.,12.0,0.,12.0,0.,12.0,0.,12.0
1981-08-27 15:42:25.480 ,7,1,0.,12.0,0.,12.0,0.,12.0,0.,12.0
1981-08-27 15:42:37.480 ,7,1,0.,12.0,0.,12.0,0.,12.0,0.,12.0
1981-08-27 15:42:49.480 ,6,1,0.,12.0,0.,12.0,0.,12.0,0.,12.0
1981-08-27 15:43:01.480 ,6,1,0.,12.0,0.,12.0,0.,12.0,0.,12.0
1981-08-27 15:43:13.480 ,5,1,0.,12.0,0.,12.0,0.,12.0,0.,12.0
1981-08-27 15:43:25.480 ,5,1,0.,12.0,0.,12.0,0.,12.0,0.,12.0
1981-08-27 15:43:37.480 ,4,1,0.,12.0,0.,12.0,0.,12.0,0.,12.0
1981-08-27 15:43:49.480 ,4,1,0.,12.0,0.,12.0,0.,12.0,0.,12.0
1981-08-27 15:44:01.480 ,3,1,0.,12.0,0.,12.0,0.,12.0,0.,12.0
1981-08-27 15:44:13.480 ,3,1,0.,12.0,0.,12.0,0.,12.0,0.,12.0
1981-08-27 15:44:25.480 ,2,1,0.,12.0,0.,12.0,0.,12.0,0.,12.0
1981-08-27 15:44:37.480 ,2,1,0.,12.0,0.,12.0,0.,12.0,0.,12.0
1981-08-27 15:44:49.480 ,1,1,0.,12.0,0.,12.0,0.,12.0,0.,12.0
1981-08-27 15:45:01.480 ,1,1,0.,12.0,0.,12.0,0.,12.0,0.,12.0
1981-08-27 15:45:13.480 ,0,1,0.,12.0,0.,12.0,0.,12.0,0.,12.0
1981-08-27 15:45:25.480 ,0,1,0.,12.0,0.,12.0,0.,12.0,0.,12.0
1981-08-27 15:45:37.480 ,0,1,0.,12.0,0.,12.0,0.,12.0,0.,12.0
1981-08-27 15:45:49.480 ,0,1,0.,12.0,0.,12.0,0.,12.0,0.,12.0
1981-08-27 15:46:01.480 ,1,1,0.,12.0,0.,12.0,0.,12.0,0.,12.0
1981-08-27 15:46:13.480 ,1,1,0.,12.0,0.,12.0,0.,12.0,0.,12.0
1981-08-27 15:46:25.480 ,2,1,0.,12.0,0.,12.0,0.,12.0,0.,12.0
1981-08-27 15:46:37.480 ,2,1,0.,12.0,0.,12.0,0.,12.0,0.,12.0
1981-08-27 15:46:49.480 ,3,1,0.,12.0,0.,12.0,0.,12.0,0.,12.0
1981-08-27 15:47:01.480 ,3,1,0.,12.0,0.,12.0,0.,12.0,0.,12.0
1981-08-27 15:47:13.480 ,4,1,0.,12.0,0.,12.0,0.,12.0,0.,12.0
1981-08-27 15:47:25.480 ,4,1,0.,12.0,0.,12.0,0.,12.0,0.,12.0
1981-08-27 15:47:37.480 ,5,1,0.,12.0,0.,12.0,0.,12.0,0.,12.0
1981-08-27 15:47:49.480 ,5,1,0.,12.0,0.,12.0,0.,12.0,0.,12.0
1981-08-27 15:48:01.480 ,6,1,0.,12.0,0.,12.0,0.,12.0,0.,12.0
1981-08-27 15:48:13.480 ,6,1,0.,12.0,0.,12.0,0.,12.0,0.,12.0
1981-08-27 15:48:25.480 ,7,1,0.,12.0,0.,12.0,0.,12.0,0.,12.0
1981-08-27 15:48:37.480 ,7,1,0.,12.0,0.,12.0,0.,12.0,0.,12.0
1981-08-27 15:48:49.480 ,7,1,0.,12.0,0.,12.0,0.,12.0,0.,12.0
1981-08-27 15:49:01.480 ,7,1,0.,12.0,0.,12.0,0.,12.0,0.,12.0
1981-08-27 15:49:13.480 ,7,0,0.,12.0,0.,12.0,0.,12.0,0.,12.0
1981-08-27 15:49:25.480 ,7,0,0.,12.0,0.,12.0,0.,12.0,0.,12.0
1981-08-27 15:49:37.480 ,6,1,0.,12.0,0.,12.0,0.,12.0,0.,12.0
1981-08-27 15:49:49.480 ,6,1,0.,12.0,0.,12.0,0.,12.0,0.,12.0
1981-08-27 15:50:01.480 ,6,0,0.,12.0,0.,12.0,0.,12.0,0.,12.0
1981-08-27 15:50:13.480 ,6,0,0.,12.0,0.,12.0,0.,12.0,0.,12.0
1981-08-27 15:50:25.480 ,5,1,0.,12.0,0.,12.0,0.,12.0,0.,12.0
1981-08-27 15:50:37.480 ,5,1,0.,12.0,0.,12.0,0.,12.0,0.,12.0
1981-08-27 15:50:49.480 ,5,0,0.,12.0,0.,12.0,0.,12.0,0.,12.0
1981-08-27 15:51:01.480 ,5,0,0.,12.0,0.,12.0,0.,12.0,0.,12.0
1981-08-27 15:51:13.480 ,4,1,0.,12.0,0.,12.0,0.,12.0,0.,12.0
1981-08-27 15:51:25.480 ,4,1,0.,12.0,0.,12.0,0.,12.0,0.,12.0
1981-08-27 15:51:37.480 ,4,0,0.,12.0,0.,12.0,0.,12.0,0.,12.0
1981-08-27 15:51:49.480 ,4,0,0.,12.0,0.,12.0,0.,12.0,0.,12.0
1981-08-27 15:52:01.480 ,3,1,0.,12.0,0.,12.0,0.,12.0,0.,12.0
1981-08-27 15:52:13.480 ,3,1,0.,12.0,0.,12.0,0.,12.0,0.,12.0
1981-08-27 15:52:25.480 ,3,0,0.,12.0,0.,12.0,0.,12.0,0.,12.0
1981-08-27 15:52:37.480 ,3,0,0.,12.0,0.,12.0,0.,12.0,0.,12.0
1981-08-27 15:52:49.480 ,2,1,0.,12.0,0.,12.0,0.,12.0,0.,12.0
1981-08-27 15:53:01.480 ,2,1,0.,12.0,0.,12.0,0.,12.0,0.,12.0
1981-08-27 15:53:13.480 ,2,0,0.,12.0,0.,12.0,0.,12.0,0.,12.0
1981-08-27 15:53:25.480 ,2,0,0.,12.0,0.,12.0,0.,12.0,0.,12.0
1981-08-27 15:53:37.480 ,1,1,0.,12.0,0.,12.0,0.,12.0,0.,12.0
1981-08-27 15:53:49.480 ,1,1,0.,12.0,0.,12.0,0.,12.0,0.,12.0
1981-08-27 15:54:01.480 ,1,0,0.,12.0,0.,12.0,0.,12.0,0.,12.0
1981-08-27 15:54:13.480 ,1,0,0.,12.0,0.,12.0,0.,12.0,0.,12.0
1981-08-27 15:54:25.480 ,0,1,0.,12.0,0.,12.0,0.,12.0,0.,12.0
1981-08-27 15:54:37.480 ,0,1,0.,12.0,0.,12.0,0.,12.0,0.,12.0
1981-08-27 15:54:49.480 ,0,0,0.,12.0,0.,12.0,0.,12.0,0.,12.0
1981-08-27 15:55:01.480 ,0,0,0.,12.0,0.,12.0,0.,12.0,0.,12.0
1981-08-27 15:55:13.480 ,0,1,0.,12.0,0.,12.0,0.,12.0,0.,12.0
1981-08-27 15:55:25.480 ,0,1,0.,12.0,0.,12.0,0.,12.0,0.,12.0
1981-08-27 15:55:37.480 ,0,0,0.,12.0,0.,12.0,0.,12.0,0.,12.0
1981-08-27 15:55:49.480 ,0,0,0.,12.0,0.,12.0,0.,12.0,0.,12.0
1981-08-27 15:56:01.480 ,1,1,0.,12.0,0.,12.0,0.,12.0,0.,12.0
1981-08-27 15:56:13.480 ,1,1,0.,12.0,0.,12.0,0.,12.0,0.,12.0
1981-08-27 15:56:25.480 ,1,0,0.,12.0,0.,12.0,0.,12.0,0.,12.0
1981-08-27 15:56:37.480 ,1,0,0.,12.0,0.,12.0,0.,12.0,0.,12.0
1981-08-27 15:56:49.480 ,2,1,0.,12.0,0.,12.0,0.,12.0,0.,12.0
1981-08-27 15:57:01.480 ,2,1,0.,12.0,0.,12.0,0.,12.0,0.,12.0
1981-08-27 15:57:13.480 ,2,0,0.,12.0,0.,12.0,0.,12.0,1.,12.0
1981-08-27 15:57:25.480 ,2,0,0.,12.0,0.,12.0,0.,12.0,0.,12.0
1981-08-27 15:57:37.480 ,3,1,0.,12.0,0.,12.0,0.,12.0,0.,12.0
1981-08-27 15:57:49.480 ,3,1,0.,12.0,0.,12.0,0.,12.0,0.,12.0
1981-08-27 15:58:01.480 ,3,0,0.,12.0,0.,12.0,0.,12.0,0.,12.0
1981-08-27 15:58:13.480 ,3,0,0.,12.0,0.,12.0,0.,12.0,0.,12.0
1981-08-27 15:58:25.480 ,4,1,0.,12.0,0.,12.0,0.,12.0,0.,12.0
1981-08-27 15:58:37.480 ,4,1,0.,12.0,0.,12.0,0.,12.0,0.,12.0
1981-08-27 15:58:49.480 ,4,0,0.,12.0,0.,12.0,0.,12.0,0.,12.0
1981-08-27 15:59:01.480 ,4,0,0.,12.0,0.,12.0,0.,12.0,0.,12.0
1981-08-27 15:59:13.480 ,5,1,0.,12.0,0.,12.0,0.,12.0,0.,12.0
1981-08-27 15:59:25.480 ,5,1,0.,12.0,0.,12.0,0.,12.0,0.,12.0
1981-08-27 15:59:37.480 ,5,0,0.,12.0,0.,12.0,0.,12.0,0.,12.0
1981-08-27 15:59:49.480 ,5,0,0.,12.0,0.,12.0,0.,12.0,0.,12.0
1981-08-27 16:00:01.480 ,6,1,0.,12.0,0.,12.0,0.,12.0,0.,12.0
1981-08-27 16:00:13.480 ,6,1,0.,12.0,0.,12.0,0.,12.0,0.,12.0
1981-08-27 16:00:25.480 ,6,0,0.,12.0,0.,12.0,0.,12.0,0.,12.0
1981-08-27 16:00:37.480 ,6,0,0.,12.0,0.,12.0,0.,12.0,0.,12.0
1981-08-27 16:00:49.480 ,7,1,0.,12.0,0.,12.0,0.,12.0,0.,12.0
1981-08-27 16:01:01.480 ,7,1,0.,12.0,0.,12.0,0.,12.0,0.,12.0
1981-08-27 16:01:13.480 ,7,0,0.,12.0,0.,12.0,0.,12.0,0.,12.0
1981-08-27 16:01:25.480 ,7,0,0.,12.0,0.,12.0,0.,12.0,0.,12.0
1981-08-27 16:01:37.480 ,7,1,0.,12.0,0.,12.0,0.,12.0,0.,12.0
1981-08-27 16:01:49.480 ,7,1,0.,12.0,0.,12.0,0.,12.0,0.,12.0
1981-08-27 16:02:01.480 ,6,1,0.,12.0,0.,12.0,0.,12.0,0.,12.0
1981-08-27 16:02:13.480 ,6,1,0.,12.0,0.,12.0,0.,12.0,0.,12.0
1981-08-27 16:02:25.480 ,5,1,0.,12.0,0.,12.0,0.,12.0,0.,12.0
1981-08-27 16:02:37.480 ,5,1,0.,12.0,0.,12.0,0.,12.0,0.,12.0
1981-08-27 16:02:49.480 ,4,1,0.,12.0,0.,12.0,0.,12.0,0.,12.0
1981-08-27 16:03:01.480 ,4,1,0.,12.0,0.,12.0,0.,12.0,0.,12.0
1981-08-27 16:03:13.480 ,3,1,0.,12.0,0.,12.0,0.,12.0,0.,12.0
1981-08-27 16:03:25.480 ,3,1,0.,12.0,0.,12.0,0.,12.0,0.,12.0
1981-08-27 16:03:37.480 ,2,1,0.,12.0,0.,12.0,0.,12.0,0.,12.0
1981-08-27 16:03:49.480 ,2,1,0.,12.0,0.,12.0,0.,12.0,0.,12.0
1981-08-27 16:04:01.480 ,1,1,0.,12.0,0.,12.0,0.,12.0,0.,12.0
1981-08-27 16:04:13.480 ,1,1,0.,12.0,0.,12.0,0.,12.0,0.,12.0
1981-08-27 16:04:25.480 ,0,1,0.,12.0,0.,12.0,0.,12.0,0.,12.0
1981-08-27 16:04:37.480 ,0,1,0.,12.0,0.,12.0,0.,12.0,0.,12.0
1981-08-27 16:04:49.480 ,0,1,0.,12.0,0.,12.0,0.,12.0,0.,12.0
1981-08-27 16:05:01.480 ,0,1,0.,12.0,0.,12.0,0.,12.0,0.,12.0
1981-08-27 16:05:13.480 ,1,1,0.,12.0,0.,12.0,0.,12.0,0.,12.0
1981-08-27 16:05:25.480 ,1,1,0.,12.0,0.,12.0,0.,12.0,0.,12.0
1981-08-27 16:05:37.480 ,2,1,0.,12.0,0.,12.0,0.,12.0,0.,12.0
1981-08-27 16:05:49.480 ,2,1,0.,12.0,0.,12.0,0.,12.0,0.,12.0
1981-08-27 16:06:01.480 ,3,1,0.,12.0,0.,12.0,0.,12.0,0.,12.0
1981-08-27 16:06:13.480 ,3,1,0.,12.0,0.,12.0,0.,12.0,0.,12.0
1981-08-27 16:06:25.480 ,4,1,0.,12.0,0.,12.0,0.,12.0,0.,12.0
1981-08-27 16:06:37.480 ,4,1,0.,12.0,0.,12.0,0.,12.0,0.,12.0
1981-08-27 16:06:49.480 ,5,1,0.,12.0,0.,12.0,0.,12.0,0.,12.0
1981-08-27 16:07:01.480 ,5,1,0.,12.0,0.,12.0,0.,12.0,0.,12.0
1981-08-27 16:07:13.480 ,6,1,0.,12.0,0.,12.0,0.,12.0,0.,12.0
1981-08-27 16:07:25.480 ,6,1,0.,12.0,0.,12.0,0.,12.0,0.,12.0
1981-08-27 16:07:37.480 ,7,1,0.,12.0,0.,12.0,0.,12.0,0.,12.0
1981-08-27 16:07:49.480 ,7,1,0.,12.0,0.,12.0,0.,12.0,0.,12.0
1981-08-27 16:08:01.480 ,7,1,0.,12.0,0.,12.0,0.,12.0,0.,12.0
1981-08-27 16:08:13.480 ,7,1,0.,12.0,0.,12.0,0.,12.0,0.,12.0
1981-08-27 16:08:25.480 ,7,0,0.,12.0,0.,12.0,0.,12.0,0.,12.0
1981-08-27 16:08:37.480 ,7,0,0.,12.0,0.,12.0,0.,12.0,0.,12.0
1981-08-27 16:08:49.480 ,6,1,0.,12.0,0.,12.0,0.,12.0,0.,12.0
1981-08-27 16:09:01.480 ,6,1,0.,12.0,0.,12.0,0.,12.0,0.,12.0
1981-08-27 16:09:13.480 ,6,0,0.,12.0,0.,12.0,0.,12.0,0.,12.0
1981-08-27 16:09:25.480 ,6,0,0.,12.0,0.,12.0,0.,12.0,0.,12.0
1981-08-27 16:09:37.480 ,5,1,0.,12.0,0.,12.0,0.,12.0,0.,12.0
1981-08-27 16:09:49.480 ,5,1,0.,12.0,0.,12.0,0.,12.0,0.,12.0
1981-08-27 16:10:01.480 ,5,0,0.,12.0,0.,12.0,0.,12.0,0.,12.0
1981-08-27 16:10:13.480 ,5,0,0.,12.0,0.,12.0,0.,12.0,0.,12.0
1981-08-27 16:10:25.480 ,4,1,0.,12.0,0.,12.0,0.,12.0,0.,12.0
1981-08-27 16:10:37.480 ,4,1,0.,12.0,0.,12.0,0.,12.0,0.,12.0
1981-08-27 16:10:49.480 ,4,0,0.,12.0,0.,12.0,0.,12.0,0.,12.0
1981-08-27 16:11:01.480 ,4,0,0.,12.0,0.,12.0,0.,12.0,1.,12.0
1981-08-27 16:11:13.480 ,3,1,0.,12.0,0.,12.0,0.,12.0,0.,12.0
1981-08-27 16:11:25.480 ,3,1,0.,12.0,0.,12.0,0.,12.0,0.,12.0
1981-08-27 16:11:37.480 ,3,0,0.,12.0,0.,12.0,0.,12.0,0.,12.0
1981-08-27 16:11:49.480 ,3,0,0.,12.0,0.,12.0,0.,12.0,0.,12.0
1981-08-27 16:12:01.480 ,2,1,0.,12.0,0.,12.0,0.,12.0,0.,12.0
1981-08-27 16:12:13.480 ,2,1,0.,12.0,0.,12.0,0.,12.0,0.,12.0
1981-08-27 16:12:25.480 ,2,0,0.,12.0,0.,12.0,0.,12.0,0.,12.0
1981-08-27 16:12:37.480 ,2,0,0.,12.0,0.,12.0,0.,12.0,0.,12.0
1981-08-27 16:12:49.480 ,1,1,0.,12.0,0.,12.0,0.,12.0,0.,12.0
1981-08-27 16:13:01.480 ,1,1,0.,12.0,0.,12.0,0.,12.0,0.,12.0
1981-08-27 16:13:13.480 ,1,0,0.,12.0,0.,12.0,0.,12.0,0.,12.0
1981-08-27 16:13:25.480 ,1,0,0.,12.0,0.,12.0,0.,12.0,0.,12.0
1981-08-27 16:13:37.480 ,0,1,0.,12.0,0.,12.0,0.,12.0,0.,12.0
1981-08-27 16:13:49.480 ,0,1,0.,12.0,0.,12.0,0.,12.0,0.,12.0
1981-08-27 16:14:01.480 ,0,0,0.,12.0,0.,12.0,0.,12.0,0.,12.0
1981-08-27 16:14:13.480 ,0,0,0.,12.0,0.,12.0,0.,12.0,0.,12.0
1981-08-27 16:14:25.480 ,0,1,0.,12.0,0.,12.0,0.,12.0,0.,12.0
1981-08-27 16:14:37.480 ,0,1,0.,12.0,0.,12.0,0.,12.0,0.,12.0
1981-08-27 16:14:49.480 ,0,0,0.,12.0,0.,12.0,0.,12.0,0.,12.0
1981-08-27 16:15:01.480 ,0,0,0.,12.0,0.,12.0,0.,12.0,0.,12.0
1981-08-27 16:15:13.480 ,1,1,0.,12.0,0.,12.0,0.,12.0,0.,12.0
1981-08-27 16:15:25.480 ,1,1,0.,12.0,0.,12.0,0.,12.0,0.,12.0
1981-08-27 16:15:37.480 ,1,0,0.,12.0,0.,12.0,0.,12.0,0.,12.0
1981-08-27 16:15:49.480 ,1,0,0.,12.0,0.,12.0,0.,12.0,0.,12.0
1981-08-27 16:16:01.480 ,2,1,0.,12.0,0.,12.0,0.,12.0,0.,12.0
1981-08-27 16:16:13.480 ,2,1,0.,12.0,0.,12.0,0.,12.0,0.,12.0
1981-08-27 16:16:25.480 ,2,0,0.,12.0,0.,12.0,0.,12.0,0.,12.0
1981-08-27 16:16:37.480 ,2,0,0.,12.0,0.,12.0,0.,12.0,0.,12.0
1981-08-27 16:16:49.480 ,3,1,0.,12.0,0.,12.0,0.,12.0,0.,12.0
1981-08-27 16:17:01.480 ,3,1,0.,12.0,0.,12.0,0.,12.0,0.,12.0
1981-08-27 16:17:13.480 ,3,0,0.,12.0,0.,12.0,0.,12.0,0.,12.0
1981-08-27 16:17:25.480 ,3,0,0.,12.0,0.,12.0,0.,12.0,0.,12.0
1981-08-27 16:17:37.480 ,4,1,0.,12.0,0.,12.0,0.,12.0,0.,12.0
1981-08-27 16:17:49.480 ,4,1,0.,12.0,0.,12.0,0.,12.0,0.,12.0
1981-08-27 16:18:01.480 ,4,0,0.,12.0,0.,12.0,0.,12.0,0.,12.0
1981-08-27 16:18:13.480 ,4,0,0.,12.0,0.,12.0,0.,12.0,0.,12.0